Header for Extended Forecast Station List Page

Search by: ID | Name | Date | Parm | Value | Avg | % Avg
Sort by: ID | Name | Date | Parm | Value | Avg | % Avg

Enter search or view all records.

Click on id for station plot
#IDNameDateParmValueAvg% Avg
0LWRI1LITTLE WOOD-LITTLE WOOD DAM05-10-2021INFLOW (KAF)65510
1HWRI1BIG LOST-AT HOWELL RANCH NEAR CHILLY05-10-2021DISCHARGE (KAF)1815511
2MACI1BIG LOST-MACKAY RESERVOIR NEAR MACKAY05-10-2021INFLOW (KAF)1715511
3HOTI1BRUNEAU-NEAR HOT SPRINGS05-10-2021DISCHARGE (KAF)2012516
4MAGI1BIG WOOD-MAGIC DAM05-10-2021INFLOW (KAF)2515816
5PIHI1PORTNEUF-AT POCATELLO05-10-2021DISCHARGE (KAF)144532
6OWYO3OWYHEE-OWYHEE DAM05-10-2021INFLOW (KAF)4213132
7HALI1BIG WOOD-AT HAILEY05-10-2021DISCHARGE (KAF)6720633
8ARAI1SF BOISE-ANDERSON RANCH DAM05-10-2021INFLOW (KAF)12837834
9RIDI1WILLOW CREEK-RIRIE DAM05-10-2021INFLOW (KAF)82236
10REXI1HENRYS FORK-AT REXBURG05-10-2021DISCHARGE (KAF)28762846
11EMMI1PAYETTE-NEAR EMMETT05-10-2021DISCHARGE (KAF)45696847
12MONO3NF JOHN DAY-AT MONUMENT05-10-2021DISCHARGE (KAF)13428847
13DEDI1DEADWOOD-NEAR LOWMAN05-10-2021INFLOW (KAF)5411348
14WRMO3MALHEUR-WARM SPRINGS DAM05-10-2021INFLOW (KAF)51049
15SERO3JOHN DAY-AT SERVICE CK05-10-2021DISCHARGE (KAF)19540149
16WHBI1SALMON-AT WHITEBIRD05-10-2021DISCHARGE (KAF)2520506450
17PRTI1PRIEST-NEAR PRIEST RIVER05-10-2021DISCHARGE (KAF)30658952
18SATI1ST MARIES-NEAR SANTA05-10-2021DISCHARGE (KAF)356752
19CSDI1NF PAYETTE-CASCADE DAM05-10-2021INFLOW (KAF)19736554
20ANAW1SNAKE-NEAR ANATONE05-10-2021DISCHARGE (KAF)57421055454
21SNAI1SNAKE-AT BLACKFOOT05-10-2021DISCHARGE (KAF)839151156
22BFTI1SNAKE-NEAR BLACKFOOT05-10-2021DISCHARGE (KAF)795138857
23WSRI1WEISER-NEAR WEISER05-10-2021DISCHARGE (KAF)12321457
24CHEI1FALL RIVER-NEAR CHESTER05-10-2021DISCHARGE (KAF)15426558
25JLKW4SNAKE-JACKSON LAKE AT DAM05-10-2021INFLOW (KAF)42573058
26PLDI1SF SNAKE-PALISADES DAM05-10-2021INFLOW (KAF)1715293658
27LLKW1SPOKANE-AT LONGLAKE05-10-2021INFLOW (KAF)1134193059
28LEOI1KOOTENAI-AT LEONIA05-10-2021DISCHARGE (KAF)3014504160
29ALPW4SNAKE-NEAR ALPINE05-10-2021DISCHARGE (KAF)1265211660
30ANTI1HENRYS FORK-AT ST. ANTHONY05-10-2021DISCHARGE (KAF)33254161
31BERO3MALHEUR-AGENCY VALLEY DAM05-10-2021INFLOW (KAF)121961
32IPDI1HENRYS FORK-ISLAND PARK DAM05-10-2021INFLOW (KAF)12420162
33LGDW1SNAKE-LOWER GRANITE DAM05-10-2021INFLOW (KAF)96961560662
34LGSW1SNAKE-LITTLE GOOSE DAM05-10-2021INFLOW (KAF)96961564562
35LMNW1SNAKE-LOWER MONUMENTAL DAM05-10-2021INFLOW (KAF)97481567562
36JKSW4SNAKE-NEAR JACKSON05-10-2021DISCHARGE (KAF)1065168563
37IHDW1SNAKE-ICE HARBOR DAM05-10-2021INFLOW (KAF)97551559263
38LAUW1KETTLE-AT LAURIER05-10-2021DISCHARGE (KAF)862134864
39WEII1SNAKE-AT WEISER05-10-2021DISCHARGE (KAF)2460382764
40AFRI1SNAKE-AMERICAN FALLS RESERVOIR05-10-2021INFLOW (KAF)1306200465
41BRNI1SNAKE-BROWNLEE DAM05-10-2021INFLOW (KAF)2656406865
42FCFM8NF FLATHEAD-NEAR COLUMBIA FALLS05-10-2021DISCHARGE (KAF)944142666
43COEI1COEUR D ALENE-COEUR D ALENE LAKE05-10-2021INFLOW (KAF)962144866
44GCDW1COLUMBIA-GRAND COULEE DAM05-10-2021INFLOW (KAF)271754083567
45TCHW1WALLA WALLA-NEAR TOUCHET05-10-2021DISCHARGE (KAF)284267
46TEAI1TETON-NEAR ST. ANTHONY05-10-2021DISCHARGE (KAF)22933568
47SIFI1SNAKE-AB EAGLE ROCK NR IDAHO FALLS05-10-2021DISCHARGE (KAF)1612233069
48MCDW1COLUMBIA-MCNARY DAM05-10-2021INFLOW (KAF)400395839669
49JDAO3COLUMBIA-JOHN DAY DAM05-10-2021INFLOW (KAF)410625966969
50SHYI1SNAKE-NEAR SHELLEY05-10-2021DISCHARGE (KAF)1442204970
51BIGI1BOISE-AT GLENWOOD BRIDGE05-10-2021DISCHARGE (KAF)26538070
52PARI1BOISE-NEAR PARMA05-10-2021DISCHARGE (KAF)23033070
53DLGM8CLARK FORK-AT DEER LODGE05-10-2021DISCHARGE (KAF)466471
54PRWW1COLUMBIA-PRIEST RAPIDS DAM05-10-2021INFLOW (KAF)295524134571
55ORFI1CLEARWATER-AT OROFINO05-10-2021DISCHARGE (KAF)2406341171
56STRM8ST. REGIS-NEAR ST. REGIS05-10-2021DISCHARGE (KAF)12517372
57WANW1COLUMBIA-WANAPUM DAM05-10-2021INFLOW (KAF)295444044873
58SWAI1SNAKE-BELOW SWAN FALLS05-10-2021DISCHARGE (KAF)1504206573
59DWRI1NF CLEARWATER-DWORSHAK DAM05-10-2021INFLOW (KAF)1344184273
60ALFW1PEND OREILLE-ALBENI FALLS DAM05-10-2021INFLOW (KAF)6895920775
61TRYO3GRANDE RONDE-TROY05-10-2021DISCHARGE (KAF)60981275
62NOXM8CLARK FORK-NOXON RAPIDS DAM05-10-2021INFLOW (KAF)5784761676
63SRGM8CLARK FORK-AT ST REGIS05-10-2021DISCHARGE (KAF)2367306177
64KERM8FLATHEAD-SELI’Š KSANKA QLISPE’ DAM05-10-2021INFLOW (KAF)3455446377
65TDAO3COLUMBIA-THE DALLES DAM05-10-2021INFLOW (KAF)412595337077
66BONO3COLUMBIA-BONNEVILLE DAM05-10-2021INFLOW (KAF)419075458377
67LYDM8KOOTENAI-LIBBY DAM05-10-2021INFLOW (KAF)4376562678
68SPDI1CLEARWATER-AT SPALDING05-10-2021DISCHARGE (KAF)3955504678
69UNDW1WHITE SALMON-NEAR UNDERWOOD05-10-2021DISCHARGE (KAF)19324778
70BITM8BITTERROOT-NEAR MISSOULA05-10-2021DISCHARGE (KAF)844106379
71CABI1CLARK FORK-CABINET GORGE DAM05-10-2021INFLOW (KAF)6359810079
72BELM8CLARK FORK-BELOW MISSOULA05-10-2021DISCHARGE (KAF)1895232681
73CHJW1COLUMBIA-CHIEF JOSEPH DAM05-10-2021INFLOW (KAF)253463056783
74WELW1COLUMBIA-WELLS DAM05-10-2021INFLOW (KAF)274063298483
75HODO3HOOD-NEAR TUCKER BRIDGE05-10-2021DISCHARGE (KAF)12314983
76WGCM8MF FLATHEAD-NEAR WEST GLACIER05-10-2021DISCHARGE (KAF)1155137984
77RRHW1COLUMBIA-ROCKY REACH DAM05-10-2021INFLOW (KAF)283483362584
78PARW1YAKIMA-NEAR PARKER05-10-2021DISCHARGE (KAF)26231284
79PITW1KLICKITAT-NEAR PITT05-10-2021DISCHARGE (KAF)29835684
80HHWM8SF FLATHEAD-HUNGRY HORSE DAM05-10-2021INFLOW (KAF)1364159985
81BONM8BLACKFOOT-NEAR BONNER05-10-2021DISCHARGE (KAF)59269585
82ABOM8CLARK FORK-ABOVE MISSOULA05-10-2021DISCHARGE (KAF)1051122985
83KIOW1YAKIMA-AT KIONA05-10-2021DISCHARGE (KAF)55365185
84CFMM8FLATHEAD-AT COLUMBIA FALLS05-10-2021DISCHARGE (KAF)3076358786
85MILI1SNAKE-AT MILNER05-10-2021DISCHARGE (KAF)14316786
86MODO3DESCHUTES-AT MOODY NR BIGGS05-10-2021DISCHARGE (KAF)1080119590
87HEII1SNAKE-NEAR HEISE05-10-2021DISCHARGE (KAF)2785307491
88BUDW1BUMPING-BUMPING LAKE DAM05-10-2021INFLOW (KAF)879493
89MYKO3MCKAY CREEK-NEAR PILOT ROCK05-10-2021DISCHARGE (KAF)4594
90RCCM8ROCK CREEK-NEAR CLINTON05-10-2021DISCHARGE (KAF)23023797
91PESW1WENATCHEE-AT PESHASTIN05-10-2021DISCHARGE (KAF)1176120797
92UMTW1YAKIMA-AT UMTANUM05-10-2021DISCHARGE (KAF)79881598
93TONW1OKANOGAN-NEAR TONASKET05-10-2021DISCHARGE (KAF)1286129999
94NACW1NACHES-NEAR NACHES05-10-2021DISCHARGE (KAF)39840299
95CLFW1NACHES-NEAR CLIFFDEL05-10-2021DISCHARGE (KAF)283279101
96PATW1METHOW-NEAR PATEROS05-10-2021DISCHARGE (KAF)748737102
97RILW1TIETON-RIMROCK LAKE NEAR RIMROCK05-10-2021INFLOW (KAF)173166104
98KADW1KACHESS-KACHESS DAM05-10-2021INFLOW (KAF)7571105
99ARDW1ENTIAT-NEAR ARDENVOIR05-10-2021DISCHARGE (KAF)196179110
100GIBO3UMATILLA-NEAR GIBBON05-10-2021DISCHARGE (KAF)3733111
101CHDW1CHELAN-LAKE CHELAN DAM05-10-2021INFLOW (KAF)1010906112
102KEDW1YAKIMA-KEECHELUS LAKE05-10-2021INFLOW (KAF)8879112
103EASW1YAKIMA-AT EASTON05-10-2021DISCHARGE (KAF)10089112
104CLUW1CLE ELUM-CLE ELUM LAKE05-10-2021INFLOW (KAF)338303112
105PDTO3UMATILLA-AT PENDLETON05-10-2021DISCHARGE (KAF)6152117
106TNAW1TEANAWAY-BELOW FORKS05-10-2021DISCHARGE (KAF)7059118
107UMAO3UMATILLA-NEAR UMATILLA05-10-2021DISCHARGE (KAF)2817166
108BFEI1KOOTENAI-AT BONNERS FERRY05-10-2021STAGE (FT)MMM
109DRMM8CLARK FORK-NR DRUMMOND05-10-2021DISCHARGE (KAF)187MM
110HOPI1PEND OREILLE-PEND OREILLE LAKE NR HOPE05-10-2021LAKE ELEVATION (FT)MMM
111SPOW1SPOKANE-AT SPOKANE05-10-2021DISCHARGE (KAF)962MM
112SJMI1ST JOE-AT ST MARIES05-10-2021STAGE (FT)MMM
113CIBW1COLUMBIA-AT INTL BOUNDARY05-10-2021DISCHARGE (KAF)25137MM
114LUCI1BOISE-LUCKY PEAK DAM05-10-2021INFLOW (KAF)797MM
115BULO3BULLY CREEK-BULLY CREEK DAM05-10-2021INFLOW (KAF)M0M